Regional Weather Roundup
Issued by NWS

Home | Current Version | Previous Version | Graphics & Text | Print | Product List | Glossary On
Versions: 1 2 3 4 5 6 7 8 9 10 11 12 13 14 15 16 17 18 19 20 21 22 23 24 25 26 27 28 29 30 31 32 33 34 35 36 37 38 39 40 41 42 43 44 45 46 47 48 49 50
162
ASUS44 KMEG 200710
RWRTN
TENNESSEE HOURLY STATE WEATHER ROUNDUP
NATIONAL WEATHER SERVICE MEMPHIS TN
200 AM CDT THU JUL 20 2017

TNZ002-004-019-021-049-052-054-088>092-200800-
WEST TENNESSEE

CITY           SKY/WX    TMP DP  RH WIND       PRES   REMARKS
MEMPHIS INTL   CLEAR     81  74  79 CALM      30.10F
NWS MEMPHIS      N/A     77 N/A N/A MISG        N/A
JACKSON        CLEAR     73  73 100 CALM      30.11S FOG
SOMERVILLE       N/A     75  75 100 CALM      30.09F
COVINGTON      CLEAR     73  73 100 CALM      30.09F
UNION CITY     CLEAR     75  73  94 CALM      30.09S
BOLIVAR        CLEAR     73  73 100 CALM      30.10F
HUNTINGDON     CLEAR     75  75 100 CALM      30.09F
LEXINGTON      CLEAR     75  73  94 CALM      30.11F FOG
SELMER         CLEAR     75  73  94 CALM      30.11S
SAVANNAH       CLEAR     73  72  94 CALM      30.10F
$$

TNZ008-025-027-028-033-062-065-066-200800-
NORTH MIDDLE TENNESSEE

CITY           SKY/WX    TMP DP  RH WIND       PRES   REMARKS
NASHVILLE      PTCLDY    75  73  93 CALM      30.12F
PORTLAND         N/A     73  72  94 S6        30.12S
CLARKSVILLE    FOG       73  72  96 CALM      30.11F VSB 1/2
SMYRNA         CLEAR     73  72  96 CALM      30.13S
COOKEVILLE       N/A     70  70 100 CALM      30.13F
GALLATIN       MOCLDY    73  72  94 N3        30.14F
CROSSVILLE     CLEAR     69  67  93 CALM      30.19S
$$

TNZ061-075-076-078-094-096-097-200800-
SOUTH MIDDLE TENNESSEE

CITY           SKY/WX    TMP DP  RH WIND       PRES   REMARKS
FAYETTEVILLE   CLEAR     75  72  88 CALM      30.12F
TULLAHOMA      CLEAR     72  68  88 CALM      30.15F
WINCHESTER     CLEAR     72  72 100 CALM      30.14S
MCMINNVILLE    CLEAR     72  72 100 CALM      30.14F
COLUMBIA       CLEAR     75  75 100 CALM      30.10F FOG
$$

TNZ017-018-042-046-047-200800-
NORTHEAST TENNESSEE

CITY           SKY/WX    TMP DP  RH WIND       PRES   REMARKS
TRI CITIES     CLEAR     68  66  93 CALM      30.14F
ELIZABETHTON   PTCLDY    66  64  94 CALM      30.15S
$$

TNZ012-013-036-069-073-074-200800-
CENTRAL EAST TENNESSEE

CITY           SKY/WX    TMP DP  RH WIND       PRES   REMARKS
KNOXVILLE      CLEAR     74  67  78 CALM      30.11F
OAK RIDGE      CLEAR     71  67  87 CALM      30.14S
DOWNTOWN KNOXV CLEAR     70  70 100 CALM      30.11F
GATLINBURG     CLEAR     72  66  83 CALM      30.12F
MORRISTOWN     PTCLDY    73  68  83 CALM      30.12F
JACKSBORO      CLEAR     68  66  94 CALM      30.17F FOG
$$

TNZ083-085-099-200800-
SOUTHEAST TENNESSEE

CITY           SKY/WX    TMP DP  RH WIND       PRES   REMARKS
CHATTANOOGA    CLEAR     76  71  85 CALM      30.12F
DAYTON         CLOUDY    72  72 100 CALM      30.10F
$$

SKY/WX REPORTED AS FAIR MEANS FEW OR NO CLOUDS BELOW
12 THOUSAND FEET.





USA.gov is the U.S. government's official web portal to all federal, state and local government web resources and services.